Weather Roundup
Issued by NWS Springfield, MO

Home | Current Version | Previous Version | Text Only | Print | Product List | Glossary On
Versions: 1 2 3 4 5 6 7 8 9 10 11 12 13 14 15 16 17 18 19 20 21 22 23 24 25 26 27 28 29 30 31 32 33 34 35 36 37 38 39 40 41 42 43 44 45 46 47 48 49 50
000
NZUS99 KSGF 291007
HRRSGF

HOURLY WEATHER
NATIONAL WEATHER SERVICE SPRINGFIELD MO
500 AM CDT MON MAY 29 2017

......SGF CWA......

CITY           SKY/WX    TMP DP  RH WIND       PRES   REMARKS
SPRINGFIELD    CLEAR     60  55  83 SW7       29.98F
JOPLIN         CLEAR     61  56  83 SW8       29.99F
WEST PLAINS    CLEAR     59  55  87 W6        29.99F
ROLLA          CLEAR     58  54  86 W8        29.95R
OSAGE BEACH    CLOUDY    54  53  97 CALM      29.97S
BRANSON        CLOUDY    59  55  88 CALM      30.01F

......SURROUNDING SGF CWA......

CITY           SKY/WX    TMP DP  RH WIND       PRES   REMARKS
CHANUTE        CLEAR     58  49  72 SW3       29.98F
PARSONS        PTCLDY    53  52  96 CALM      29.99F
COFFEYVILLE    PTCLDY    57  55  93 CALM      29.98F
EMPORIA        CLEAR     62  47  57 W6        29.98F
GROVE OK       CLOUDY    57  57 100 CALM      30.01F
ROGERS AR      CLEAR     57  55  93 CALM      30.02F
SILOAM SPRINGS CLEAR     57  52  82 CALM      30.01F
HARRISON AR    CLOUDY    59  53  80 W5        30.01F
NEAR YELLVILLE CLEAR     57  52  82 CALM      29.96F

......KANSAS AND MISSOURI......

CITY           SKY/WX    TMP DP  RH WIND       PRES   REMARKS
KANSAS CTY INT PTCLDY    56  52  86 SW7       29.94S
DOWNTOWN KC    CLEAR     58  54  86 SW6       29.93F
COLUMBIA       PTCLDY    59  52  77 W6        29.94S
SEDALIA        CLEAR     59  55  87 SW5       29.95F
ST JOSEPH      MOCLDY    58  55  90 SW3       29.93S
ST LOUIS       PTCLDY    64  55  72 W8        29.92R
SPIRIT OF STL  CLEAR     63  57  81 SW9       29.91R
KIRKSVILLE     CLEAR     55  47  74 SW6       29.90F
WICHITA        CLEAR     56  47  71 SW5       30.00F
TOPEKA         CLOUDY    55  55 100 NW5       29.95S
OLATHE         CLEAR     57  53  86 SW5       29.95F

......TENNESSEE......

CITY           SKY/WX    TMP DP  RH WIND       PRES   REMARKS
MEMPHIS        CLOUDY    70  69  97 CALM      29.95F
NASHVILLE      CLOUDY    65  63  93 S5        29.98R

......ARKANSAS.......

CITY           SKY/WX    TMP DP  RH WIND       PRES   REMARKS
FAYETTEVILLE   CLEAR     53  53 100 S3        30.02F
FT SMITH       CLOUDY    62  58  86 N5        29.99F
LITTLE ROCK    CLOUDY    66  64  93 NW10      29.93F

......OKLAHOMA.......

CITY           SKY/WX    TMP DP  RH WIND       PRES   REMARKS
TULSA          CLOUDY    66  58  75 CALM      29.98F
PONCA CITY     CLEAR     56  49  77 CALM      30.00F
MCALESTER      CLEAR     58  56  93 CALM      30.01F
OKLAHOMA CITY  CLOUDY    60  47  61 CALM      30.03F

......IOWA............

CITY           SKY/WX    TMP DP  RH WIND       PRES   REMARKS
DES MOINES     CLOUDY    57  49  74 NW5       29.90R
QUAD CITIES    PTCLDY    57  48  72 W3        29.84R

......ILLINOIS........

CITY           SKY/WX    TMP DP  RH WIND       PRES   REMARKS
QUINCY         CLEAR     56  52  86 SW7       29.89R
CHICAGO        PTCLDY    59  50  72 W8        29.76S




USA.gov is the U.S. government's official web portal to all federal, state and local government web resources and services.